Location: Byhalia Creek
(34.8270°N, 89.8040°W)
Time: 07:50:55
(UTC+00:00)

CARTOSAT-1 - Pass Details

Date: 22 April 2026
Orbit: 593 x 596 km, 97.5° (Epoch: 15 May)

Event Time Altitude Azimuth Distance (km) Brightness Sun altitude
Rises 01:00:25 0° 178° (S) 2,822 6.7 -5.5°
Reaches altitude 10° 01:02:37 10° 183° (S) 1,925 5.9 -5.9°
Maximum altitude 01:06:41 52° 260° (W) 741 4.4 -6.7°
Drops below altitude 10° 01:10:48 10° 338° (NNW) 1,937 6.8 -7.5°
Sets 01:13:02 0° 343° (NNW) 2,843 7.6 -8.0°
